EVA202 VTBS-RCTP

Flight info

Callsign EVA202
Flight time 2h 53m
Altitude 35000
Route LIPLI1J LIPLI Y16 BUTRA A1 PAPRA/K0898F350 A1 IKELA/N0482F350 DCT ENVAR M750 EXTRA/N0467F290 M750 TONGA TONGA1A
Aircraft B77W/H-SDE1E2E3FGHIJ1J3J4J5LM1P2RWXYZ/LB1D1

Departure

Time 2026-04-30 11:59
Airport Suvarnabhumi Airport (VTBS)

Arrival

Time 2026-04-30 14:52
Airport Taiwan Taoyuan International Airport (RCTP)
Time Latitude Longitude Altitude Speed Heading
2026-04-30 11:11 13.69107 100.74921 18 ft 0 kts 14°
2026-04-30 11:46 13.69100 100.74920 19 ft 3 kts 16°
2026-04-30 11:46 13.69081 100.74913 19 ft 3 kts 27°
2026-04-30 11:47 13.69064 100.74902 20 ft 3 kts 43°
2026-04-30 11:47 13.69050 100.74886 23 ft 3 kts 62°
2026-04-30 11:47 13.69043 100.74867 20 ft 3 kts 82°
2026-04-30 11:47 13.69042 100.74846 18 ft 3 kts 97°
2026-04-30 11:48 13.69046 100.74825 19 ft 3 kts 105°
2026-04-30 11:48 13.69050 100.74810 20 ft 0 kts 104°
2026-04-30 11:50 13.69044 100.74836 18 ft 7 kts 104°
2026-04-30 11:50 13.69029 100.74895 20 ft 9 kts 104°
2026-04-30 11:51 13.69012 100.74966 18 ft 12 kts 104°
2026-04-30 11:51 13.68990 100.75053 18 ft 12 kts 105°
2026-04-30 11:51 13.68959 100.75134 18 ft 12 kts 136°
2026-04-30 11:51 13.68875 100.75131 18 ft 13 kts 193°
2026-04-30 11:52 13.68789 100.75109 18 ft 13 kts 194°
2026-04-30 11:52 13.68704 100.75086 18 ft 13 kts 194°
2026-04-30 11:52 13.68618 100.75076 18 ft 13 kts 158°
2026-04-30 11:52 13.68581 100.75155 18 ft 13 kts 104°
2026-04-30 11:53 13.68559 100.75244 18 ft 13 kts 104°
2026-04-30 11:53 13.68537 100.75333 18 ft 13 kts 104°
2026-04-30 11:53 13.68514 100.75422 18 ft 13 kts 105°
2026-04-30 11:53 13.68498 100.75480 18 ft 13 kts 104°
2026-04-30 11:54 13.68468 100.75599 18 ft 13 kts 104°
2026-04-30 11:54 13.68454 100.75658 18 ft 13 kts 104°
2026-04-30 11:54 13.68482 100.75730 18 ft 13 kts 20°
2026-04-30 11:54 13.68569 100.75755 18 ft 13 kts 15°
2026-04-30 11:55 13.68657 100.75780 19 ft 13 kts 15°
2026-04-30 11:55 13.68745 100.75802 18 ft 13 kts 13°
2026-04-30 11:55 13.68833 100.75824 18 ft 13 kts 14°
2026-04-30 11:55 13.68920 100.75848 18 ft 13 kts 14°
2026-04-30 11:56 13.69019 100.75873 18 ft 18 kts 14°
2026-04-30 11:56 13.69051 100.75882 18 ft 8 kts 14°
2026-04-30 11:56 13.69089 100.75916 18 ft 7 kts 84°
2026-04-30 11:56 13.69086 100.75937 18 ft 0 kts 103°
2026-04-30 11:57 13.69085 100.75940 18 ft 3 kts 103°
2026-04-30 11:57 13.69077 100.75976 18 ft 6 kts 103°
2026-04-30 11:57 13.69067 100.76024 18 ft 11 kts 102°
2026-04-30 11:58 13.69014 100.76068 18 ft 11 kts 198°
2026-04-30 11:58 13.68940 100.76045 19 ft 11 kts 195°
2026-04-30 11:58 13.68797 100.76007 20 ft 42 kts 194°
2026-04-30 11:58 13.68261 100.75866 18 ft 116 kts 194°
2026-04-30 11:59 13.67265 100.75605 18 ft 176 kts 195°
2026-04-30 11:59 13.65938 100.75269 182 ft 207 kts 194°
2026-04-30 11:59 13.64581 100.74901 933 ft 191 kts 193°
2026-04-30 11:59 13.63296 100.74808 1739 ft 188 kts 172°
2026-04-30 12:00 13.61947 100.75015 2045 ft 207 kts 172°
2026-04-30 12:00 13.60434 100.75211 2310 ft 230 kts 169°
2026-04-30 12:00 13.58970 100.75954 2767 ft 242 kts 137°
2026-04-30 12:00 13.58056 100.77432 3419 ft 253 kts 107°
2026-04-30 12:01 13.57996 100.79243 4088 ft 258 kts 80°
2026-04-30 12:01 13.58117 100.81093 4570 ft 265 kts 105°
2026-04-30 12:01 13.57215 100.82725 5280 ft 264 kts 132°
2026-04-30 12:01 13.56149 100.84270 5808 ft 271 kts 108°
2026-04-30 12:02 13.56067 100.86191 6491 ft 276 kts 78°
2026-04-30 12:02 13.56547 100.88118 7005 ft 282 kts 79°
2026-04-30 12:02 13.56813 100.90121 7674 ft 282 kts 88°
2026-04-30 12:02 13.56979 100.92126 8335 ft 284 kts 86°
2026-04-30 12:03 13.57130 100.94175 8933 ft 291 kts 88°
2026-04-30 12:03 13.57206 100.98410 10231 ft 301 kts 92°
2026-04-30 12:03 13.57194 101.00617 10569 ft 320 kts 92°
2026-04-30 12:04 13.57355 101.02965 10687 ft 342 kts 76°
2026-04-30 12:04 13.58430 101.05225 10856 ft 363 kts 57°
2026-04-30 12:04 13.59889 101.07432 11144 ft 381 kts 56°
2026-04-30 12:04 13.61404 101.09716 11754 ft 391 kts 56°
2026-04-30 12:05 13.62946 101.12047 12512 ft 397 kts 56°
2026-04-30 12:05 13.64500 101.14411 13284 ft 402 kts 57°
2026-04-30 12:05 13.66071 101.16815 14019 ft 407 kts 57°
2026-04-30 12:05 13.67651 101.19245 14720 ft 411 kts 57°
2026-04-30 12:06 13.69244 101.21702 15426 ft 415 kts 57°
2026-04-30 12:06 13.70850 101.24186 16116 ft 419 kts 57°
2026-04-30 12:06 13.72472 101.26697 16798 ft 424 kts 57°
2026-04-30 12:06 13.74109 101.29234 17468 ft 428 kts 57°
2026-04-30 12:07 13.75761 101.31795 18142 ft 432 kts 57°
2026-04-30 12:07 13.77429 101.34382 18742 ft 435 kts 57°
2026-04-30 12:07 13.79107 101.36985 19325 ft 439 kts 57°
2026-04-30 12:07 13.80802 101.39613 19891 ft 443 kts 57°
2026-04-30 12:08 13.82510 101.42265 20465 ft 446 kts 57°
2026-04-30 12:08 13.84232 101.44938 21013 ft 450 kts 57°
2026-04-30 12:08 13.85970 101.47636 21553 ft 454 kts 57°
2026-04-30 12:08 13.87721 101.50356 22111 ft 458 kts 57°
2026-04-30 12:09 13.89487 101.53101 22640 ft 462 kts 57°
2026-04-30 12:09 13.91266 101.55866 23157 ft 465 kts 57°
2026-04-30 12:09 13.93060 101.58655 23604 ft 469 kts 56°
2026-04-30 12:09 13.94867 101.61466 24058 ft 472 kts 56°
2026-04-30 12:10 13.96686 101.64296 24465 ft 475 kts 56°
2026-04-30 12:10 13.98515 101.67143 24886 ft 478 kts 56°
2026-04-30 12:10 14.00356 101.70009 25309 ft 481 kts 56°
2026-04-30 12:10 14.02208 101.72894 25716 ft 484 kts 56°
2026-04-30 12:11 14.04070 101.75795 26113 ft 487 kts 56°
2026-04-30 12:11 14.05921 101.78679 26481 ft 491 kts 56°
2026-04-30 12:11 14.07806 101.81619 26856 ft 494 kts 56°
2026-04-30 12:11 14.09705 101.84582 27254 ft 497 kts 56°
2026-04-30 12:12 14.11613 101.87559 27656 ft 499 kts 56°
2026-04-30 12:12 14.13529 101.90551 28026 ft 502 kts 56°
2026-04-30 12:12 14.15457 101.93561 28376 ft 505 kts 56°
2026-04-30 12:12 14.17365 101.96613 28712 ft 508 kts 59°
2026-04-30 12:13 14.18640 101.99410 28950 ft 512 kts 69°
2026-04-30 12:13 14.19756 102.02907 29281 ft 515 kts 72°
2026-04-30 12:13 14.20773 102.06457 29570 ft 518 kts 73°
2026-04-30 12:13 14.21787 102.10023 29930 ft 519 kts 72°
2026-04-30 12:14 14.22833 102.13580 30317 ft 518 kts 72°
2026-04-30 12:14 14.23910 102.17113 30716 ft 517 kts 71°
2026-04-30 12:14 14.25015 102.20638 31077 ft 517 kts 71°
2026-04-30 12:14 14.26133 102.24154 31434 ft 517 kts 71°
2026-04-30 12:15 14.27259 102.27680 31745 ft 518 kts 71°
2026-04-30 12:15 14.28383 102.31207 32107 ft 518 kts 71°
2026-04-30 12:15 14.29502 102.34729 32503 ft 517 kts 71°
2026-04-30 12:15 14.30618 102.38252 32875 ft 517 kts 71°
2026-04-30 12:16 14.31732 102.41775 33241 ft 516 kts 71°
2026-04-30 12:16 14.32839 102.45282 33706 ft 513 kts 71°
2026-04-30 12:16 14.33943 102.48781 34074 ft 513 kts 71°
2026-04-30 12:16 14.35034 102.52242 34369 ft 513 kts 71°
2026-04-30 12:17 14.37240 102.59236 34839 ft 515 kts 71°
2026-04-30 12:17 14.39579 102.66236 34907 ft 515 kts 69°
2026-04-30 12:18 14.42112 102.73095 34897 ft 510 kts 68°
2026-04-30 12:18 14.44636 102.79915 34903 ft 508 kts 68°
2026-04-30 12:19 14.47114 102.86736 34904 ft 508 kts 69°
2026-04-30 12:19 14.49574 102.93570 34903 ft 508 kts 69°
2026-04-30 12:20 14.52035 103.00420 34906 ft 509 kts 69°
2026-04-30 12:20 14.54501 103.07283 34901 ft 511 kts 69°
2026-04-30 12:21 14.56972 103.14163 34918 ft 512 kts 69°
2026-04-30 12:21 14.59452 103.21076 34909 ft 515 kts 69°
2026-04-30 12:22 14.61944 103.28029 34911 ft 517 kts 69°
2026-04-30 12:22 14.64444 103.35010 34908 ft 519 kts 69°
2026-04-30 12:23 14.66947 103.42010 34901 ft 520 kts 69°
2026-04-30 12:23 14.69432 103.48966 34901 ft 519 kts 69°
2026-04-30 12:24 14.71943 103.56003 34899 ft 519 kts 69°
2026-04-30 12:24 14.74433 103.62990 34900 ft 518 kts 69°
2026-04-30 12:25 14.76915 103.69961 34901 ft 517 kts 69°
2026-04-30 12:25 14.79376 103.76880 34901 ft 516 kts 69°
2026-04-30 12:26 14.81832 103.83846 34902 ft 516 kts 69°
2026-04-30 12:26 14.84240 103.90823 34901 ft 516 kts 69°
2026-04-30 12:27 14.86643 103.97807 34902 ft 516 kts 69°
2026-04-30 12:27 14.89050 104.04795 34902 ft 516 kts 69°
2026-04-30 12:28 14.91461 104.11785 34900 ft 516 kts 69°
2026-04-30 12:28 14.93872 104.18784 34899 ft 517 kts 69°
2026-04-30 12:29 14.96280 104.25783 34898 ft 517 kts 69°
2026-04-30 12:29 14.98688 104.32789 34900 ft 517 kts 69°
2026-04-30 12:30 15.01098 104.39809 34897 ft 517 kts 69°
2026-04-30 12:30 15.03488 104.46780 34895 ft 517 kts 69°
2026-04-30 12:31 15.05891 104.53793 34892 ft 517 kts 69°
2026-04-30 12:31 15.08291 104.60810 34889 ft 517 kts 69°
2026-04-30 12:32 15.10689 104.67826 34888 ft 517 kts 69°
2026-04-30 12:32 15.13088 104.74855 34886 ft 517 kts 69°
2026-04-30 12:33 15.15481 104.81871 34885 ft 518 kts 69°
2026-04-30 12:33 15.17881 104.88918 34891 ft 520 kts 69°
2026-04-30 12:34 15.20292 104.96005 34892 ft 523 kts 69°
2026-04-30 12:34 15.22710 105.03121 34889 ft 525 kts 69°
2026-04-30 12:35 15.25130 105.10252 34884 ft 525 kts 69°
2026-04-30 12:35 15.27551 105.17391 34888 ft 525 kts 69°
2026-04-30 12:36 15.29964 105.24518 34886 ft 524 kts 69°
2026-04-30 12:36 15.32370 105.31633 34885 ft 523 kts 69°
2026-04-30 12:37 15.34752 105.38685 34889 ft 522 kts 69°
2026-04-30 12:37 15.37145 105.45776 34890 ft 521 kts 69°
2026-04-30 12:38 15.39533 105.52862 34892 ft 521 kts 69°
2026-04-30 12:38 15.41883 105.59954 34894 ft 521 kts 72°
2026-04-30 12:39 15.43609 105.67252 34903 ft 522 kts 76°
2026-04-30 12:39 15.45192 105.74609 34894 ft 524 kts 76°
2026-04-30 12:40 15.46800 105.81987 34908 ft 525 kts 76°
2026-04-30 12:40 15.48439 105.89378 34906 ft 527 kts 76°
2026-04-30 12:41 15.50088 105.96780 34911 ft 528 kts 76°
2026-04-30 12:41 15.51736 106.04196 34909 ft 528 kts 75°
2026-04-30 12:42 15.53101 106.10360 34920 ft 527 kts 75°
2026-04-30 12:42 15.55016 106.19018 34918 ft 526 kts 75°
2026-04-30 12:43 15.56372 106.25162 34933 ft 526 kts 75°
2026-04-30 12:43 15.58000 106.32551 34938 ft 525 kts 75°
2026-04-30 12:44 15.59627 106.39944 34923 ft 524 kts 75°
2026-04-30 12:44 15.61244 106.47304 34930 ft 523 kts 75°
2026-04-30 12:45 15.62854 106.54650 34912 ft 522 kts 75°
2026-04-30 12:45 15.64460 106.61983 34926 ft 521 kts 75°
2026-04-30 12:46 15.66062 106.69310 34943 ft 521 kts 75°
2026-04-30 12:46 15.67661 106.76639 34929 ft 520 kts 75°
2026-04-30 12:47 15.69256 106.83962 34964 ft 520 kts 75°
2026-04-30 12:47 15.70852 106.91291 34987 ft 521 kts 76°
2026-04-30 12:48 15.72448 106.98644 34994 ft 524 kts 76°
2026-04-30 12:48 15.74047 107.06028 35004 ft 524 kts 76°
2026-04-30 12:49 15.75645 107.13413 35006 ft 525 kts 76°
2026-04-30 12:49 15.77348 107.20768 35025 ft 523 kts 72°
2026-04-30 12:50 15.79424 107.27993 35031 ft 522 kts 71°
2026-04-30 12:50 15.81525 107.35150 35024 ft 522 kts 71°
2026-04-30 12:51 15.83595 107.42366 35018 ft 521 kts 72°
2026-04-30 12:51 15.85650 107.49567 35017 ft 519 kts 72°
2026-04-30 12:52 15.87696 107.56749 35019 ft 518 kts 72°
2026-04-30 12:52 15.89736 107.63912 35017 ft 517 kts 72°
2026-04-30 12:53 15.91744 107.71083 35003 ft 517 kts 73°
2026-04-30 12:53 15.93700 107.78261 35000 ft 516 kts 73°
2026-04-30 12:54 15.95664 107.85445 34996 ft 518 kts 73°
2026-04-30 12:54 15.97657 107.92660 34994 ft 520 kts 73°
2026-04-30 12:55 15.99704 107.99892 34993 ft 523 kts 73°
2026-04-30 12:55 16.01756 108.07165 34994 ft 525 kts 73°
2026-04-30 12:56 16.03808 108.14461 34995 ft 526 kts 72°
2026-04-30 12:56 16.06569 108.21471 34992 ft 523 kts 61°
2026-04-30 12:57 16.10357 108.27833 34998 ft 520 kts 54°
2026-04-30 12:57 16.14452 108.34031 34992 ft 520 kts 54°
2026-04-30 12:58 16.18512 108.40250 34970 ft 519 kts 54°
2026-04-30 12:58 16.22534 108.46487 34984 ft 519 kts 55°
2026-04-30 12:59 16.26546 108.52726 34972 ft 519 kts 55°
2026-04-30 12:59 16.30558 108.58965 34975 ft 518 kts 55°
2026-04-30 13:00 16.34566 108.65199 34978 ft 518 kts 55°
2026-04-30 13:00 16.38631 108.71396 34984 ft 518 kts 53°
2026-04-30 13:01 16.42779 108.77540 34983 ft 518 kts 53°
2026-04-30 13:01 16.46917 108.83693 34980 ft 519 kts 54°
2026-04-30 13:02 16.51037 108.89860 34984 ft 519 kts 54°
2026-04-30 13:02 16.55158 108.96035 34986 ft 519 kts 54°
2026-04-30 13:03 16.59244 109.02240 34991 ft 519 kts 55°
2026-04-30 13:03 16.63276 109.08490 34992 ft 519 kts 55°
2026-04-30 13:04 16.67303 109.14735 34983 ft 519 kts 55°
2026-04-30 13:04 16.71339 109.20977 34993 ft 519 kts 55°
2026-04-30 13:05 16.75374 109.27217 34989 ft 519 kts 55°
2026-04-30 13:06 16.81424 109.36588 35005 ft 519 kts 54°
2026-04-30 13:06 16.85464 109.42844 34994 ft 520 kts 54°
2026-04-30 13:07 16.89515 109.49092 34995 ft 519 kts 54°
2026-04-30 13:07 16.93535 109.55295 34994 ft 519 kts 54°
2026-04-30 13:08 16.97576 109.61541 34994 ft 519 kts 54°
2026-04-30 13:08 17.01608 109.67783 34995 ft 518 kts 54°
2026-04-30 13:09 17.05637 109.74025 34994 ft 518 kts 54°
2026-04-30 13:09 17.09665 109.80271 35003 ft 518 kts 54°
2026-04-30 13:10 17.13688 109.86515 34994 ft 518 kts 54°
2026-04-30 13:10 17.17705 109.92755 34996 ft 517 kts 54°
2026-04-30 13:11 17.21720 109.98998 34994 ft 517 kts 54°
2026-04-30 13:11 17.25730 110.05240 34998 ft 517 kts 54°
2026-04-30 13:12 17.29738 110.11484 34998 ft 517 kts 54°
2026-04-30 13:12 17.33745 110.17732 34998 ft 517 kts 54°
2026-04-30 13:13 17.39747 110.27102 34996 ft 517 kts 54°
2026-04-30 13:14 17.45788 110.36472 35000 ft 518 kts 54°
2026-04-30 13:14 17.51878 110.45825 34996 ft 518 kts 54°
2026-04-30 13:15 17.57961 110.55202 34998 ft 518 kts 54°
2026-04-30 13:16 17.62007 110.61454 34997 ft 518 kts 54°
2026-04-30 13:16 17.66049 110.67704 34998 ft 518 kts 54°
2026-04-30 13:17 17.72080 110.77042 34998 ft 518 kts 54°
2026-04-30 13:18 17.78128 110.86417 34999 ft 517 kts 54°
2026-04-30 13:18 17.84163 110.95785 35005 ft 516 kts 54°
2026-04-30 13:19 17.88178 111.02026 35003 ft 516 kts 54°
2026-04-30 13:19 17.92192 111.08270 35002 ft 516 kts 54°
2026-04-30 13:20 17.96204 111.14517 35003 ft 516 kts 54°
2026-04-30 13:20 18.00218 111.20773 35010 ft 516 kts 54°
2026-04-30 13:21 18.04229 111.27032 35007 ft 517 kts 54°
2026-04-30 13:22 18.10250 111.36436 35010 ft 517 kts 55°
2026-04-30 13:22 18.16270 111.45853 35011 ft 517 kts 55°
2026-04-30 13:23 18.22260 111.55236 35009 ft 518 kts 55°
2026-04-30 13:24 18.30283 111.67826 35013 ft 518 kts 55°
2026-04-30 13:25 18.38309 111.80445 35013 ft 519 kts 55°
2026-04-30 13:26 18.48320 111.96221 35020 ft 518 kts 55°
2026-04-30 13:28 18.58316 112.12014 35021 ft 518 kts 55°
2026-04-30 13:28 18.64305 112.21495 35018 ft 518 kts 55°
2026-04-30 13:29 18.71743 112.32964 35018 ft 517 kts 53°
2026-04-30 13:31 18.82061 112.48491 35024 ft 517 kts 54°
2026-04-30 13:32 18.92322 112.64077 35024 ft 517 kts 54°
2026-04-30 13:33 19.00495 112.76515 35034 ft 517 kts 54°
2026-04-30 13:34 19.06640 112.85883 35021 ft 517 kts 54°
2026-04-30 13:35 19.14821 112.98376 35024 ft 516 kts 54°
2026-04-30 13:36 19.22989 113.10875 35025 ft 516 kts 54°
2026-04-30 13:36 19.29107 113.20254 35026 ft 516 kts 54°
2026-04-30 13:37 19.35219 113.29638 35024 ft 516 kts 54°
2026-04-30 13:38 19.41327 113.39030 35023 ft 516 kts 54°
2026-04-30 13:39 19.49457 113.51553 35020 ft 515 kts 54°
2026-04-30 13:40 19.55547 113.60951 35028 ft 516 kts 54°
2026-04-30 13:40 19.59612 113.67233 35028 ft 517 kts 54°
2026-04-30 13:41 19.63686 113.73535 35024 ft 518 kts 54°
2026-04-30 13:41 19.67760 113.79843 35030 ft 518 kts 54°
2026-04-30 13:42 19.71830 113.86153 35020 ft 517 kts 54°
2026-04-30 13:42 19.77914 113.95595 35028 ft 516 kts 54°
2026-04-30 13:43 19.81969 114.01898 35025 ft 517 kts 54°
2026-04-30 13:43 19.86032 114.08218 35030 ft 518 kts 54°
2026-04-30 13:44 19.90097 114.14549 35029 ft 519 kts 54°
2026-04-30 13:44 19.94164 114.20890 35028 ft 519 kts 54°
2026-04-30 13:45 20.00265 114.30414 35030 ft 519 kts 54°
2026-04-30 13:46 20.04328 114.36766 35033 ft 520 kts 54°
2026-04-30 13:46 20.08391 114.43126 35034 ft 520 kts 54°
2026-04-30 13:47 20.12455 114.49492 35026 ft 520 kts 54°
2026-04-30 13:47 20.16517 114.55862 35024 ft 520 kts 54°
2026-04-30 13:48 20.20572 114.62230 35026 ft 520 kts 54°
2026-04-30 13:48 20.24625 114.68601 35027 ft 520 kts 54°
2026-04-30 13:49 20.28677 114.74976 35024 ft 519 kts 54°
2026-04-30 13:49 20.32722 114.81347 35029 ft 519 kts 54°
2026-04-30 13:50 20.36739 114.87683 35028 ft 519 kts 54°
2026-04-30 13:50 20.42801 114.97254 35029 ft 519 kts 54°
2026-04-30 13:51 20.46840 115.03642 35029 ft 519 kts 54°
2026-04-30 13:51 20.50873 115.10026 35024 ft 519 kts 54°
2026-04-30 13:52 20.54901 115.16409 35022 ft 518 kts 54°
2026-04-30 13:52 20.58923 115.22791 35037 ft 518 kts 54°
2026-04-30 13:53 20.62941 115.29171 35037 ft 518 kts 54°
2026-04-30 13:53 20.66958 115.35560 35024 ft 519 kts 54°
2026-04-30 13:54 20.70980 115.41960 35041 ft 519 kts 54°
2026-04-30 13:54 20.75008 115.48379 35047 ft 520 kts 54°
2026-04-30 13:55 20.79038 115.54809 35032 ft 522 kts 54°
2026-04-30 13:55 20.83074 115.61256 35035 ft 522 kts 54°
2026-04-30 13:56 20.87118 115.67721 35029 ft 524 kts 54°
2026-04-30 13:56 20.91167 115.74203 35038 ft 525 kts 54°
2026-04-30 13:57 20.95224 115.80706 35036 ft 526 kts 54°
2026-04-30 13:57 20.99285 115.87221 35039 ft 527 kts 54°
2026-04-30 13:58 21.05382 115.97019 35034 ft 527 kts 54°
2026-04-30 13:59 21.09442 116.03554 35034 ft 527 kts 54°
2026-04-30 13:59 21.13494 116.10082 35040 ft 526 kts 54°
2026-04-30 14:00 21.17541 116.16608 35042 ft 525 kts 54°
2026-04-30 14:00 21.23593 116.26383 35044 ft 524 kts 54°
2026-04-30 14:01 21.27596 116.32859 35052 ft 525 kts 53°
2026-04-30 14:01 21.31624 116.39382 35047 ft 525 kts 53°
2026-04-30 14:02 21.35648 116.45907 35042 ft 525 kts 54°
2026-04-30 14:02 21.39700 116.52485 35043 ft 525 kts 54°
2026-04-30 14:03 21.43692 116.58974 35045 ft 524 kts 53°
2026-04-30 14:03 21.47705 116.65504 35055 ft 524 kts 53°
2026-04-30 14:04 21.51718 116.72041 35045 ft 524 kts 53°
2026-04-30 14:04 21.55728 116.78581 35040 ft 524 kts 53°
2026-04-30 14:05 21.59734 116.85123 35044 ft 524 kts 53°
2026-04-30 14:05 21.63740 116.91673 35043 ft 524 kts 53°
2026-04-30 14:06 21.69743 117.01503 35042 ft 524 kts 53°
2026-04-30 14:07 21.75744 117.11345 35040 ft 525 kts 53°
2026-04-30 14:08 21.81747 117.21211 35050 ft 525 kts 53°
2026-04-30 14:08 21.87740 117.31078 35045 ft 525 kts 53°
2026-04-30 14:09 21.91729 117.37656 35044 ft 525 kts 53°
2026-04-30 14:10 21.97705 117.47525 35048 ft 524 kts 54°
2026-04-30 14:10 22.01628 117.54140 35045 ft 524 kts 56°
2026-04-30 14:11 22.05402 117.60855 35042 ft 523 kts 56°
2026-04-30 14:11 22.09158 117.67570 35051 ft 523 kts 56°
2026-04-30 14:12 22.12931 117.74263 35057 ft 522 kts 56°
2026-04-30 14:12 22.16710 117.80953 35068 ft 522 kts 56°
2026-04-30 14:13 22.20479 117.87638 35055 ft 522 kts 56°
2026-04-30 14:13 22.24243 117.94325 35054 ft 521 kts 56°
2026-04-30 14:14 22.28004 118.01012 35055 ft 521 kts 56°
2026-04-30 14:14 22.31859 118.07628 35059 ft 520 kts 54°
2026-04-30 14:15 22.35726 118.14180 35056 ft 521 kts 55°
2026-04-30 14:15 22.39595 118.20799 35055 ft 521 kts 55°
2026-04-30 14:16 22.43409 118.27454 35057 ft 521 kts 56°
2026-04-30 14:16 22.46560 118.33052 35056 ft 520 kts 56°
2026-04-30 14:17 22.50938 118.40816 35054 ft 520 kts 56°
2026-04-30 14:17 22.54100 118.46413 35049 ft 521 kts 56°
2026-04-30 14:18 22.57877 118.53099 35066 ft 521 kts 56°
2026-04-30 14:18 22.63593 118.63112 35050 ft 521 kts 55°
2026-04-30 14:19 22.69314 118.73141 35063 ft 522 kts 56°
2026-04-30 14:20 22.73098 118.79797 35063 ft 523 kts 56°
2026-04-30 14:20 22.78818 118.89878 35060 ft 524 kts 56°
2026-04-30 14:21 22.82627 118.96601 35036 ft 523 kts 56°
2026-04-30 14:22 22.88325 119.06673 35066 ft 522 kts 56°
2026-04-30 14:22 22.94011 119.16745 35049 ft 522 kts 56°
2026-04-30 14:23 23.01578 119.30177 35063 ft 522 kts 56°
2026-04-30 14:24 23.07249 119.40268 35048 ft 522 kts 56°
2026-04-30 14:25 23.14775 119.53691 35045 ft 522 kts 56°
2026-04-30 14:26 23.19058 119.59951 35038 ft 512 kts 36°
2026-04-30 14:26 23.21999 119.62032 35071 ft 502 kts 24°
2026-04-30 14:27 23.31290 119.67586 35056 ft 510 kts 25°
2026-04-30 14:27 23.37431 119.71465 35055 ft 510 kts 26°
2026-04-30 14:28 23.46575 119.77268 34988 ft 499 kts 26°
2026-04-30 14:28 23.49546 119.79165 34676 ft 492 kts 27°
2026-04-30 14:28 23.52447 119.81114 34278 ft 487 kts 28°
2026-04-30 14:29 23.58130 119.85075 33175 ft 484 kts 28°
2026-04-30 14:29 23.63770 119.89012 32168 ft 477 kts 28°
2026-04-30 14:30 23.72077 119.94756 30854 ft 466 kts 28°
2026-04-30 14:31 23.77521 119.98513 29969 ft 460 kts 28°
2026-04-30 14:31 23.82883 120.02218 29024 ft 452 kts 28°
2026-04-30 14:31 23.85525 120.04046 28567 ft 448 kts 28°
2026-04-30 14:32 23.90747 120.07661 27650 ft 441 kts 28°
2026-04-30 14:32 23.93329 120.09450 27210 ft 438 kts 28°
2026-04-30 14:32 23.95891 120.11226 26772 ft 435 kts 28°
2026-04-30 14:33 23.98438 120.12994 26312 ft 432 kts 28°
2026-04-30 14:33 24.03470 120.16485 25512 ft 425 kts 28°
2026-04-30 14:33 24.05959 120.18212 25091 ft 422 kts 28°
2026-04-30 14:34 24.08428 120.19927 24687 ft 420 kts 28°
2026-04-30 14:34 24.10883 120.21634 24317 ft 416 kts 29°
2026-04-30 14:34 24.13287 120.23306 23945 ft 413 kts 29°
2026-04-30 14:34 24.15705 120.24989 23527 ft 411 kts 28°
2026-04-30 14:35 24.20507 120.28332 22658 ft 406 kts 27°
2026-04-30 14:35 24.22879 120.29985 22218 ft 403 kts 28°
2026-04-30 14:35 24.25242 120.31632 21746 ft 402 kts 28°
2026-04-30 14:36 24.27595 120.33272 21322 ft 400 kts 28°
2026-04-30 14:36 24.29932 120.34903 20908 ft 397 kts 27°
2026-04-30 14:36 24.32261 120.36529 20470 ft 396 kts 28°
2026-04-30 14:36 24.34581 120.38148 20052 ft 394 kts 28°
2026-04-30 14:37 24.36886 120.39758 19668 ft 392 kts 28°
2026-04-30 14:37 24.39178 120.41361 19293 ft 389 kts 28°
2026-04-30 14:37 24.41455 120.42953 18893 ft 387 kts 28°
2026-04-30 14:37 24.43723 120.44540 18506 ft 386 kts 28°
2026-04-30 14:38 24.45982 120.46121 18082 ft 384 kts 28°
2026-04-30 14:38 24.48229 120.47694 17654 ft 382 kts 28°
2026-04-30 14:38 24.50427 120.49236 17056 ft 368 kts 28°
2026-04-30 14:38 24.52568 120.50738 16109 ft 363 kts 28°
2026-04-30 14:39 24.54696 120.52229 15099 ft 362 kts 28°
2026-04-30 14:39 24.56815 120.53714 14132 ft 361 kts 29°
2026-04-30 14:39 24.58923 120.55192 13134 ft 358 kts 28°
2026-04-30 14:40 24.63044 120.58085 11365 ft 345 kts 30°
2026-04-30 14:40 24.65057 120.59499 10418 ft 343 kts 30°
2026-04-30 14:40 24.67056 120.60904 9524 ft 340 kts 30°
2026-04-30 14:40 24.68948 120.62429 8658 ft 334 kts 38°
2026-04-30 14:41 24.70661 120.64107 8130 ft 327 kts 41°
2026-04-30 14:41 24.72305 120.65795 7958 ft 320 kts 42°
2026-04-30 14:41 24.73919 120.67444 7731 ft 315 kts 41°
2026-04-30 14:41 24.75513 120.69053 7551 ft 307 kts 41°
2026-04-30 14:42 24.77080 120.70618 7362 ft 301 kts 41°
2026-04-30 14:42 24.78630 120.72158 7014 ft 302 kts 41°
2026-04-30 14:42 24.80190 120.73699 6727 ft 300 kts 41°
2026-04-30 14:42 24.81526 120.75401 6423 ft 290 kts 65°
2026-04-30 14:43 24.82240 120.77449 6134 ft 284 kts 73°
2026-04-30 14:43 24.82880 120.79521 5678 ft 289 kts 71°
2026-04-30 14:43 24.83549 120.81581 5489 ft 283 kts 71°
2026-04-30 14:43 24.84221 120.83596 5250 ft 278 kts 70°
2026-04-30 14:44 24.84894 120.85580 4987 ft 275 kts 69°
2026-04-30 14:44 24.85572 120.87558 4633 ft 274 kts 69°
2026-04-30 14:44 24.86241 120.89497 4474 ft 267 kts 68°
2026-04-30 14:44 24.86895 120.91388 4293 ft 261 kts 68°
2026-04-30 14:45 24.87536 120.93235 4113 ft 254 kts 68°
2026-04-30 14:45 24.88152 120.95013 4063 ft 243 kts 67°
2026-04-30 14:45 24.88745 120.96717 4006 ft 232 kts 68°
2026-04-30 14:45 24.89304 120.98326 3982 ft 217 kts 68°
2026-04-30 14:46 24.89823 120.99823 3983 ft 202 kts 68°
2026-04-30 14:46 24.90328 121.01278 4035 ft 207 kts 68°
2026-04-30 14:46 24.90873 121.02770 4018 ft 210 kts 60°
2026-04-30 14:46 24.91689 121.04085 4063 ft 208 kts 50°
2026-04-30 14:47 24.92628 121.05322 4083 ft 214 kts 49°
2026-04-30 14:47 24.93615 121.06573 3797 ft 217 kts 49°
2026-04-30 14:47 24.94595 121.07811 3526 ft 211 kts 48°
2026-04-30 14:47 24.95549 121.09014 3229 ft 205 kts 49°
2026-04-30 14:48 24.96468 121.10177 2959 ft 198 kts 49°
2026-04-30 14:48 24.97358 121.11303 2713 ft 191 kts 50°
2026-04-30 14:48 24.98199 121.12368 2454 ft 176 kts 50°
2026-04-30 14:48 24.98962 121.13333 2248 ft 159 kts 50°
2026-04-30 14:49 24.99649 121.14202 2036 ft 143 kts 50°
2026-04-30 14:49 25.00301 121.15028 1878 ft 143 kts 50°
2026-04-30 14:49 25.00939 121.15837 1705 ft 141 kts 50°
2026-04-30 14:49 25.01587 121.16657 1492 ft 142 kts 50°
2026-04-30 14:50 25.02851 121.18260 1119 ft 138 kts 49°
2026-04-30 14:50 25.03484 121.19064 964 ft 140 kts 50°
2026-04-30 14:51 25.04807 121.20746 587 ft 148 kts 50°
2026-04-30 14:51 25.05487 121.21593 361 ft 145 kts 49°
2026-04-30 14:51 25.06785 121.23245 101 ft 131 kts 50°
2026-04-30 14:52 25.07262 121.23850 99 ft 72 kts 49°
2026-04-30 14:52 25.07616 121.24195 103 ft 22 kts 25°
2026-04-30 14:52 25.07735 121.24245 105 ft 13 kts 19°
2026-04-30 14:53 25.07787 121.24265 105 ft 10 kts 18°
2026-04-30 14:53 25.07846 121.24278 106 ft 1 kts 355°
2026-04-30 14:54 25.07914 121.24239 108 ft 12 kts 320°
2026-04-30 14:54 25.07963 121.24099 107 ft 12 kts 228°
2026-04-30 14:55 25.07850 121.23955 108 ft 12 kts 229°
2026-04-30 14:55 25.07793 121.23882 107 ft 12 kts 229°
2026-04-30 14:55 25.07680 121.23737 107 ft 12 kts 229°
2026-04-30 14:56 25.07567 121.23592 108 ft 12 kts 229°
2026-04-30 14:56 25.07576 121.23461 107 ft 6 kts 320°
2026-04-30 14:57 25.07594 121.23444 109 ft 1 kts 319°
2026-04-30 14:57 25.07600 121.23438 109 ft 0 kts 319°